| time (UTC) | temp C | wind direction | speed KPH | gust KPH | rain 1hr cm | rain 24hr cm | rain mn cm | humidity % | barometer mb |
| 20260503230134 | 33 | 118 | 1.6 | 4.8 | 0.00 | 0.00 | 0.00 | 25 | 1008.2 |
| 20260503225631 | 32 | 105 | 0.0 | 0.0 | 0.00 | 0.00 | 0.00 | 25 | 1008.4 |
| 20260503225131 | 32 | 89 | 4.8 | 6.4 | 0.00 | 0.00 | 0.00 | 25 | 1008.5 |
| 20260503224628 | 32 | 97 | 3.2 | 3.2 | 0.00 | 0.00 | 0.00 | 25 | 1008.8 |
| 20260503224126 | 32 | 104 | 0.0 | 1.6 | 0.00 | 0.00 | 0.00 | 25 | 1008.8 |
| 20260503223624 | 32 | 161 | 6.4 | 9.7 | 0.00 | 0.00 | 0.00 | 25 | 1008.8 |
| 20260503223120 | 32 | 133 | 1.6 | 1.6 | 0.00 | 0.00 | 0.00 | 25 | 1008.8 |
| 20260503222618 | 31 | 104 | 1.6 | 3.2 | 0.00 | 0.00 | 0.00 | 25 | 1009.0 |
| 20260503222115 | 31 | 120 | 4.8 | 4.8 | 0.00 | 0.00 | 0.00 | 25 | 1009.0 |
| 20260503221613 | 31 | 107 | 3.2 | 3.2 | 0.00 | 0.00 | 0.00 | 24 | 1009.1 |
| 20260503221110 | 32 | 114 | 3.2 | 3.2 | 0.00 | 0.00 | 0.00 | 23 | 1009.3 |
| 20260503220607 | 32 | 103 | 6.4 | 9.7 | 0.00 | 0.00 | 0.00 | 24 | 1009.3 |
| 20260503220104 | 31 | 112 | 3.2 | 3.2 | 0.00 | 0.00 | 0.00 | 24 | 1009.4 |
| 20260503215601 | 31 | 126 | 11.3 | 14.5 | 0.00 | 0.00 | 0.00 | 23 | 1009.5 |
| 20260503215057 | 31 | 158 | 1.6 | 1.6 | 0.00 | 0.00 | 0.00 | 23 | 1009.5 |
| 20260503214556 | 32 | 116 | 4.8 | 6.4 | 0.00 | 0.00 | 0.00 | 26 | 1009.7 |
| 20260503214052 | 31 | 119 | 9.7 | 11.3 | 0.00 | 0.00 | 0.00 | 24 | 1009.6 |
| 20260503213551 | 31 | 162 | 6.4 | 9.7 | 0.00 | 0.00 | 0.00 | 24 | 1009.7 |
| 20260503213047 | 32 | 104 | 1.6 | 1.6 | 0.00 | 0.00 | 0.00 | 25 | 1009.8 |
| 20260503212544 | 31 | 107 | 0.0 | 1.6 | 0.00 | 0.00 | 0.00 | 28 | 1009.9 |
| 20260503212042 | 31 | 110 | 6.4 | 11.3 | 0.00 | 0.00 | 0.00 | 25 | 1010.0 |
| 20260503211539 | 31 | 111 | 0.0 | 1.6 | 0.00 | 0.00 | 0.00 | 25 | 1009.9 |
| 20260503211034 | 31 | 113 | 1.6 | 1.6 | 0.00 | 0.00 | 0.00 | 27 | 1010.0 |
| 20260503210531 | 31 | 111 | 0.0 | 0.0 | 0.00 | 0.00 | 0.00 | 28 | 1010.2 |
| 20260503210027 | 31 | 108 | 3.2 | 4.8 | 0.00 | 0.00 | 0.00 | 26 | 1010.2 |
| 20260503205524 | 32 | 115 | 3.2 | 4.8 | 0.00 | 0.00 | 0.00 | 28 | 1010.2 |
| 20260503205020 | 31 | 85 | 1.6 | 3.2 | 0.00 | 0.00 | 0.00 | 26 | 1010.2 |
| 20260503204517 | 31 | 157 | 4.8 | 4.8 | 0.00 | 0.00 | 0.00 | 26 | 1010.4 |
| 20260503204014 | 32 | 102 | 12.9 | 16.1 | 0.00 | 0.00 | 0.00 | 27 | 1010.4 |
| 20260503203511 | 31 | 107 | 1.6 | 1.6 | 0.00 | 0.00 | 0.00 | 27 | 1010.4 |
| 20260503203008 | 31 | 182 | 1.6 | 3.2 | 0.00 | 0.00 | 0.00 | 27 | 1010.7 |
| 20260503202506 | 31 | 144 | 3.2 | 4.8 | 0.00 | 0.00 | 0.00 | 27 | 1010.7 |
| 20260503202004 | 31 | 126 | 1.6 | 1.6 | 0.00 | 0.00 | 0.00 | 27 | 1010.8 |
| 20260503201501 | 30 | 22 | 3.2 | 6.4 | 0.00 | 0.00 | 0.00 | 27 | 1010.6 |
| 20260503200959 | 30 | 136 | 4.8 | 6.4 | 0.00 | 0.00 | 0.00 | 28 | 1010.9 |
| 20260503200455 | 31 | 76 | 3.2 | 4.8 | 0.00 | 0.00 | 0.00 | 27 | 1010.9 |
| 20260503195951 | 31 | 105 | 1.6 | 1.6 | 0.00 | 0.00 | 0.00 | 28 | 1011.0 |
| 20260503195449 | 30 | 118 | 3.2 | 4.8 | 0.00 | 0.00 | 0.00 | 27 | 1011.1 |
| 20260503194945 | 30 | 131 | 3.2 | 4.8 | 0.00 | 0.00 | 0.00 | 26 | 1011.0 |
| 20260503194443 | 30 | 52 | 8.0 | 9.7 | 0.00 | 0.00 | 0.00 | 26 | 1011.1 |
| 20260503193938 | 30 | 102 | 4.8 | 4.8 | 0.00 | 0.00 | 0.00 | 28 | 1011.2 |
| 20260503193433 | 30 | 96 | 4.8 | 4.8 | 0.00 | 0.00 | 0.00 | 29 | 1011.1 |
| 20260503192929 | 31 | 112 | 8.0 | 11.3 | 0.00 | 0.00 | 0.00 | 27 | 1011.2 |
| 20260503192426 | 30 | 111 | 0.0 | 0.0 | 0.00 | 0.00 | 0.00 | 28 | 1011.2 |
| 20260503191921 | 30 | 130 | 4.8 | 4.8 | 0.00 | 0.00 | 0.00 | 29 | 1011.4 |
| 20260503191420 | 30 | 92 | 1.6 | 3.2 | 0.00 | 0.00 | 0.00 | 28 | 1011.3 |
| 20260503190915 | 30 | 106 | 6.4 | 9.7 | 0.00 | 0.00 | 0.00 | 29 | 1011.4 |
| 20260503190413 | 30 | 76 | 1.6 | 1.6 | 0.00 | 0.00 | 0.00 | 31 | 1011.5 |
| 20260503185909 | 30 | 138 | 11.3 | 14.5 | 0.00 | 0.00 | 0.00 | 28 | 1011.5 |
| 20260503185406 | 30 | 203 | 6.4 | 9.7 | 0.00 | 0.00 | 0.00 | 29 | 1011.3 |
| 20260503184905 | 29 | 86 | 4.8 | 6.4 | 0.00 | 0.00 | 0.00 | 31 | 1011.7 |
| 20260503184402 | 30 | 123 | 4.8 | 9.7 | 0.00 | 0.00 | 0.00 | 30 | 1011.6 |
| 20260503183858 | 29 | 125 | 6.4 | 6.4 | 0.00 | 0.00 | 0.00 | 30 | 1011.8 |
| 20260503183355 | 29 | 103 | 3.2 | 3.2 | 0.00 | 0.00 | 0.00 | 32 | 1011.6 |
| 20260503182853 | 30 | 154 | 6.4 | 11.3 | 0.00 | 0.00 | 0.00 | 31 | 1011.8 |
| 20260503182351 | 30 | 118 | 3.2 | 3.2 | 0.00 | 0.00 | 0.00 | 30 | 1011.9 |
| 20260503181848 | 29 | 105 | 0.0 | 1.6 | 0.00 | 0.00 | 0.00 | 32 | 1011.7 |
| 20260503181345 | 29 | 149 | 4.8 | 4.8 | 0.00 | 0.00 | 0.00 | 32 | 1011.9 |
| 20260503180842 | 29 | 144 | 4.8 | 4.8 | 0.00 | 0.00 | 0.00 | 31 | 1011.8 |
| 20260503180340 | 28 | 105 | 0.0 | 1.6 | 0.00 | 0.00 | 0.00 | 34 | 1011.8 |
| 20260503175836 | 28 | 87 | 3.2 | 3.2 | 0.00 | 0.00 | 0.00 | 35 | 1012.1 |
| 20260503175334 | 28 | 138 | 6.4 | 9.7 | 0.00 | 0.00 | 0.00 | 35 | 1012.0 |
| 20260503174835 | 27 | 102 | 0.0 | 1.6 | 0.00 | 0.00 | 0.00 | 38 | 1012.0 |
| 20260503174333 | 27 | 112 | 1.6 | 1.6 | 0.00 | 0.00 | 0.00 | 40 | 1012.1 |
| 20260503173828 | 26 | 118 | 3.2 | 4.8 | 0.00 | 0.00 | 0.00 | 40 | 1012.0 |
| 20260503173325 | 26 | 141 | 6.4 | 6.4 | 0.00 | 0.00 | 0.00 | 41 | 1012.1 |
| 20260503172821 | 26 | 148 | 3.2 | 3.2 | 0.00 | 0.00 | 0.00 | 43 | 1012.2 |
| 20260503172319 | 26 | 113 | 3.2 | 3.2 | 0.00 | 0.00 | 0.00 | 44 | 1012.1 |
| 20260503171815 | 26 | 122 | 3.2 | 3.2 | 0.00 | 0.00 | 0.00 | 44 | 1012.2 |
| 20260503171312 | 26 | 92 | 0.0 | 0.0 | 0.00 | 0.00 | 0.00 | 45 | 1012.3 |
| 20260503170809 | 25 | 106 | 0.0 | 0.0 | 0.00 | 0.00 | 0.00 | 48 | 1012.2 |
| 20260503170306 | 25 | 106 | 1.6 | 3.2 | 0.00 | 0.00 | 0.00 | 46 | 1012.2 |
| 20260503150658 | 16 | 107 | 0.0 | 0.0 | 0.00 | 0.00 | 0.00 | 66 | 1013.0 |
| 20260503150154 | 16 | 107 | 0.0 | 0.0 | 0.00 | 0.00 | 0.00 | 66 | 1013.0 |
| 20260503140118 | 12 | 106 | 0.0 | 1.6 | 0.00 | 0.00 | 0.00 | 82 | 1013.3 |
| 20260503131048 | 11 | 112 | 0.0 | 0.0 | 0.00 | 0.00 | 0.00 | 85 | 1013.0 |
| 20260503130545 | 11 | 97 | 0.0 | 0.0 | 0.00 | 0.00 | 0.00 | 85 | 1013.0 |
| 20260503110435 | 12 | 107 | 0.0 | 1.6 | 0.00 | 0.00 | 0.00 | 85 | 1013.0 |
| 20260503090326 | 13 | 94 | 0.0 | 1.6 | 0.00 | 0.00 | 0.00 | 87 | 1013.1 |
| 20260503081254 | 13 | 101 | 0.0 | 0.0 | 0.00 | 0.00 | 0.00 | 87 | 1013.3 |
| 20260503080750 | 14 | 101 | 1.6 | 3.2 | 0.00 | 0.00 | 0.00 | 86 | 1013.0 |
| 20260503080247 | 13 | 88 | 1.6 | 1.6 | 0.00 | 0.00 | 0.00 | 88 | 1012.9 |
| 20260503072724 | 13 | 109 | 0.0 | 0.0 | 0.00 | 0.00 | 0.00 | 90 | 1013.1 |
| 20260503072221 | 14 | 92 | 1.6 | 1.6 | 0.00 | 0.00 | 0.00 | 89 | 1012.9 |
| 20260503071717 | 14 | 65 | 1.6 | 1.6 | 0.00 | 0.00 | 0.00 | 90 | 1012.9 |
| 20260503071214 | 14 | 97 | 0.0 | 1.6 | 0.00 | 0.00 | 0.00 | 89 | 1013.0 |
| 20260503070711 | 14 | 111 | 0.0 | 0.0 | 0.00 | 0.00 | 0.00 | 89 | 1012.9 |
| 20260503070209 | 15 | 126 | 0.0 | 0.0 | 0.00 | 0.00 | 0.00 | 89 | 1012.8 |
| 20260503060133 | 15 | 108 | 0.0 | 1.6 | 0.00 | 0.00 | 0.00 | 86 | 1012.9 |
| 20260503055125 | 15 | 112 | 0.0 | 0.0 | 0.00 | 0.00 | 0.00 | 87 | 1013.3 |
| 20260503054620 | 15 | 105 | 0.0 | 0.0 | 0.00 | 0.00 | 0.00 | 86 | 1012.8 |
| 20260503054118 | 15 | 90 | 0.0 | 1.6 | 0.00 | 0.00 | 0.00 | 89 | 1013.1 |
| 20260503053615 | 15 | 114 | 0.0 | 0.0 | 0.00 | 0.00 | 0.00 | 89 | 1013.0 |
| 20260503053114 | 15 | 107 | 0.0 | 0.0 | 0.00 | 0.00 | 0.00 | 89 | 1013.1 |
| 20260503052610 | 15 | 105 | 0.0 | 0.0 | 0.00 | 0.00 | 0.00 | 90 | 1013.4 |
| 20260503052106 | 15 | 100 | 0.0 | 0.0 | 0.00 | 0.00 | 0.00 | 89 | 1013.4 |
| 20260503051602 | 15 | 59 | 1.6 | 1.6 | 0.00 | 0.00 | 0.00 | 89 | 1013.5 |
| 20260503051100 | 15 | 119 | 0.0 | 1.6 | 0.00 | 0.00 | 0.00 | 89 | 1013.3 |
| 20260503050555 | 15 | 131 | 1.6 | 1.6 | 0.00 | 0.00 | 0.00 | 89 | 1013.4 |
| 20260503050053 | 15 | 72 | 1.6 | 1.6 | 0.00 | 0.00 | 0.00 | 88 | 1013.3 |
| 20260503045550 | 15 | 312 | 3.2 | 3.2 | 0.00 | 0.00 | 0.00 | 89 | 1013.3 |
| 20260503045047 | 15 | 91 | 1.6 | 1.6 | 0.00 | 0.00 | 0.00 | 89 | 1013.5 |
| 20260503044544 | 15 | 85 | 1.6 | 1.6 | 0.00 | 0.00 | 0.00 | 89 | 1013.5 |
| 20260503044041 | 15 | 92 | 0.0 | 0.0 | 0.00 | 0.00 | 0.00 | 88 | 1013.5 |
| 20260503043537 | 15 | 93 | 0.0 | 1.6 | 0.00 | 0.00 | 0.00 | 88 | 1013.3 |
| 20260503043034 | 15 | 139 | 0.0 | 0.0 | 0.00 | 0.00 | 0.00 | 88 | 1013.5 |
| 20260503042531 | 15 | 146 | 1.6 | 1.6 | 0.00 | 0.00 | 0.00 | 87 | 1013.3 |
| 20260503042027 | 15 | 112 | 1.6 | 1.6 | 0.00 | 0.00 | 0.00 | 87 | 1013.5 |
| 20260503041524 | 15 | 117 | 0.0 | 0.0 | 0.00 | 0.00 | 0.00 | 87 | 1013.4 |
| 20260503041022 | 15 | 116 | 0.0 | 0.0 | 0.00 | 0.00 | 0.00 | 87 | 1013.1 |
| 20260503040519 | 16 | 117 | 0.0 | 0.0 | 0.00 | 0.00 | 0.00 | 87 | 1013.3 |
| 20260503040016 | 16 | 112 | 0.0 | 0.0 | 0.00 | 0.00 | 0.00 | 86 | 1013.0 |
| 20260503035513 | 16 | 121 | 0.0 | 0.0 | 0.00 | 0.00 | 0.00 | 86 | 1013.0 |
| 20260503035011 | 16 | 106 | 0.0 | 0.0 | 0.00 | 0.00 | 0.00 | 86 | 1012.6 |
| 20260503034508 | 16 | 120 | 0.0 | 0.0 | 0.00 | 0.00 | 0.00 | 85 | 1012.6 |
| 20260503034004 | 16 | 113 | 0.0 | 0.0 | 0.00 | 0.00 | 0.00 | 84 | 1012.6 |
| 20260503033501 | 17 | 144 | 1.6 | 1.6 | 0.00 | 0.00 | 0.00 | 83 | 1012.4 |
| 20260503033000 | 17 | 112 | 0.0 | 0.0 | 0.00 | 0.00 | 0.00 | 82 | 1012.2 |
| 20260503032458 | 17 | 178 | 1.6 | 1.6 | 0.00 | 0.00 | 0.00 | 82 | 1012.0 |
| 20260503031955 | 17 | 134 | 0.0 | 0.0 | 0.00 | 0.00 | 0.00 | 79 | 1012.0 |
| 20260503031453 | 18 | 113 | 0.0 | 0.0 | 0.00 | 0.00 | 0.00 | 78 | 1011.8 |
| 20260503030949 | 18 | 108 | 0.0 | 0.0 | 0.00 | 0.00 | 0.00 | 77 | 1011.8 |
| 20260503030446 | 18 | 110 | 0.0 | 0.0 | 0.00 | 0.00 | 0.00 | 77 | 1011.8 |
| 20260503025943 | 18 | 114 | 0.0 | 0.0 | 0.00 | 0.00 | 0.00 | 77 | 1011.7 |
| 20260503025440 | 18 | 123 | 0.0 | 0.0 | 0.00 | 0.00 | 0.00 | 78 | 1011.7 |
| 20260503024938 | 18 | 119 | 0.0 | 0.0 | 0.00 | 0.00 | 0.00 | 77 | 1011.5 |
| 20260503024434 | 18 | 127 | 0.0 | 0.0 | 0.00 | 0.00 | 0.00 | 76 | 1011.5 |
| 20260503023931 | 19 | 116 | 0.0 | 0.0 | 0.00 | 0.00 | 0.00 | 74 | 1011.4 |
| 20260503023428 | 19 | 115 | 0.0 | 0.0 | 0.00 | 0.00 | 0.00 | 73 | 1011.2 |
| 20260503022925 | 20 | 115 | 0.0 | 0.0 | 0.00 | 0.00 | 0.00 | 71 | 1011.3 |
| 20260503022420 | 20 | 116 | 0.0 | 0.0 | 0.00 | 0.00 | 0.00 | 71 | 1011.4 |
| 20260503021916 | 20 | 113 | 0.0 | 0.0 | 0.00 | 0.00 | 0.00 | 69 | 1011.3 |
| 20260503021412 | 20 | 116 | 0.0 | 0.0 | 0.00 | 0.00 | 0.00 | 70 | 1011.1 |
| 20260503020910 | 20 | 118 | 0.0 | 0.0 | 0.00 | 0.00 | 0.00 | 69 | 1011.0 |
| 20260503020407 | 20 | 108 | 0.0 | 0.0 | 0.00 | 0.00 | 0.00 | 69 | 1011.1 |
| 20260503015903 | 20 | 112 | 1.6 | 1.6 | 0.00 | 0.00 | 0.00 | 68 | 1011.0 |
| 20260503015401 | 20 | 110 | 0.0 | 0.0 | 0.00 | 0.00 | 0.00 | 68 | 1011.0 |
| 20260503014856 | 20 | 107 | 1.6 | 3.2 | 0.00 | 0.00 | 0.00 | 67 | 1011.0 |
| 20260503014354 | 20 | 99 | 0.0 | 0.0 | 0.00 | 0.00 | 0.00 | 67 | 1011.1 |
| 20260503013852 | 20 | 121 | 3.2 | 3.2 | 0.00 | 0.00 | 0.00 | 67 | 1011.0 |
| 20260503013348 | 21 | 122 | 3.2 | 3.2 | 0.00 | 0.00 | 0.00 | 65 | 1011.0 |
| 20260503012845 | 21 | 107 | 1.6 | 1.6 | 0.00 | 0.00 | 0.00 | 65 | 1011.1 |
| 20260503012343 | 21 | 104 | 0.0 | 0.0 | 0.00 | 0.00 | 0.00 | 64 | 1010.7 |
| 20260503011840 | 22 | 99 | 0.0 | 0.0 | 0.00 | 0.00 | 0.00 | 62 | 1010.8 |
| 20260503011337 | 22 | 113 | 0.0 | 0.0 | 0.00 | 0.00 | 0.00 | 61 | 1010.7 |
| 20260503010833 | 22 | 93 | 0.0 | 1.6 | 0.00 | 0.00 | 0.00 | 61 | 1010.7 |
| 20260503010330 | 21 | 103 | 0.0 | 0.0 | 0.00 | 0.00 | 0.00 | 62 | 1010.8 |
| 20260503005827 | 21 | 109 | 1.6 | 3.2 | 0.00 | 0.00 | 0.00 | 61 | 1010.8 |
| 20260503005325 | 21 | 108 | 1.6 | 1.6 | 0.00 | 0.00 | 0.00 | 61 | 1010.5 |
| 20260503004820 | 21 | 131 | 3.2 | 4.8 | 0.00 | 0.00 | 0.00 | 62 | 1010.8 |
| 20260503004318 | 21 | 120 | 1.6 | 1.6 | 0.00 | 0.00 | 0.00 | 62 | 1010.7 |
| 20260503003816 | 21 | 112 | 3.2 | 3.2 | 0.00 | 0.00 | 0.00 | 62 | 1010.6 |
| 20260503003312 | 21 | 107 | 1.6 | 1.6 | 0.00 | 0.00 | 0.00 | 61 | 1010.5 |
| 20260503002809 | 22 | 123 | 6.4 | 6.4 | 0.00 | 0.00 | 0.00 | 60 | 1010.7 |
| 20260503002307 | 22 | 101 | 1.6 | 1.6 | 0.00 | 0.00 | 0.00 | 60 | 1010.6 |
| 20260503001803 | 22 | 106 | 1.6 | 1.6 | 0.00 | 0.00 | 0.00 | 59 | 1010.5 |
| 20260503001259 | 22 | 113 | 0.0 | 0.0 | 0.00 | 0.00 | 0.00 | 59 | 1010.6 |
| 20260503000757 | 22 | 105 | 1.6 | 1.6 | 0.00 | 0.00 | 0.00 | 59 | 1010.5 |
| 20260503000253 | 22 | 112 | 1.6 | 1.6 | 0.00 | 0.00 | 0.00 | 59 | 1010.7 |
| 20260502235751 | 22 | 108 | 1.6 | 1.6 | 0.00 | 0.00 | 0.00 | 59 | 1010.8 |
| 20260502235249 | 22 | 103 | 0.0 | 1.6 | 0.00 | 0.00 | 0.00 | 58 | 1010.8 |
| 20260502234744 | 21 | 118 | 1.6 | 3.2 | 0.00 | 0.00 | 0.00 | 58 | 1010.9 |
| 20260502234242 | 22 | 116 | 3.2 | 4.8 | 0.00 | 0.00 | 0.00 | 58 | 1010.8 |
| 20260502233738 | 21 | 105 | 1.6 | 1.6 | 0.00 | 0.00 | 0.00 | 59 | 1010.7 |
| 20260502233235 | 21 | 113 | 1.6 | 1.6 | 0.00 | 0.00 | 0.00 | 58 | 1010.9 |
| 20260502232730 | 21 | 176 | 3.2 | 4.8 | 0.00 | 0.00 | 0.00 | 58 | 1011.1 |
| 20260502232228 | 22 | 141 | 3.2 | 3.2 | 0.00 | 0.00 | 0.00 | 56 | 1011.1 |
| 20260502231725 | 22 | 113 | 1.6 | 1.6 | 0.00 | 0.00 | 0.00 | 56 | 1011.2 |
| 20260502231222 | 22 | 144 | 3.2 | 4.8 | 0.00 | 0.00 | 0.00 | 56 | 1011.4 |
| 20260502230721 | 22 | 92 | 1.6 | 3.2 | 0.00 | 0.00 | 0.00 | 58 | 1011.4 |